This is the latest recevied weather packets stored in our database for station/object KN6CW-3. If no packets are shown the sender has not sent any weather packets the latest 10 day(s).
| Time | Temp. | Humidity | Pressure | Rain* | Wind** | Luminosity | Snow |
|---|---|---|---|---|---|---|---|
| 1777813279 | 3.89° C | 70% | 1014.2 hPa | 0 mm | - | 186 W/m² | - |
| 1777812978 | 3.89° C | 71% | 1014.2 hPa | 0 mm | - | 513 W/m² | - |
| 1777812678 | 3.33° C | 72% | 1014.2 hPa | 0 mm | - | 526 W/m² | - |
| 1777812378 | 3.33° C | 71% | 1014.3 hPa | 0 mm | - | 366 W/m² | - |
| 1777812078 | 3.33° C | 71% | 1014.2 hPa | 0 mm | - | 285 W/m² | - |
| 1777811777 | 3.89° C | 71% | 1014.1 hPa | 0 mm | - | 248 W/m² | - |
| 1777811477 | 3.89° C | 72% | 1014.1 hPa | 0 mm | - | 374 W/m² | - |
| 1777811177 | 3.33° C | 72% | 1014 hPa | 0 mm | - | 290 W/m² | - |
| 1777810876 | 3.33° C | 72% | 1014.1 hPa | 0 mm | - | 271 W/m² | - |
| 1777810576 | 3.33° C | 72% | 1014 hPa | 0 mm | - | 213 W/m² | - |
| 1777810276 | 3.89° C | 72% | 1014 hPa | 0 mm | - | 155 W/m² | - |
| 1777809976 | 3.89° C | 73% | 1014 hPa | 0 mm | - | 225 W/m² | - |
| 1777809675 | 3.33° C | 72% | 1014 hPa | 0 mm | - | 413 W/m² | - |
| 1777809375 | 3.33° C | 72% | 1013.9 hPa | 0 mm | - | 352 W/m² | - |
| 1777809075 | 3.33° C | 74% | 1013.9 hPa | 0 mm | - | 338 W/m² | - |
| 1777808775 | 3.33° C | 76% | 1013.9 hPa | 0 mm | - | 302 W/m² | - |
| 1777808474 | 2.78° C | 76% | 1013.9 hPa | 0 mm | - | 287 W/m² | - |
| 1777808174 | 2.22° C | 77% | 1013.8 hPa | 0 mm | - | 262 W/m² | - |
| 1777807873 | 2.22° C | 77% | 1013.8 hPa | 0 mm | - | 237 W/m² | - |
| 1777807573 | 2.22° C | 77% | 1013.7 hPa | 0 mm | - | 211 W/m² | - |
| 1777807273 | 2.22° C | 77% | 1013.7 hPa | 0 mm | - | 186 W/m² | - |
| 1777806973 | 2.22° C | 78% | 1013.7 hPa | 0 mm | - | 171 W/m² | - |
| 1777806673 | 2.22° C | 78% | 1013.6 hPa | 0 mm | - | 149 W/m² | - |
| 1777806372 | 1.67° C | 79% | 1013.4 hPa | 0 mm | - | 134 W/m² | - |
| 1777806072 | 1.67° C | 80% | 1013.3 hPa | 0 mm | - | 111 W/m² | - |
* Rain latest hour (hover to see other rain measurements)
** Current wind speed in m/s (hover to see current wind gust speed)